Theta_e
279 276 271 272 274 275 275 275 274 276 281 278 276 276 278 280 280 279 280 281 281 282 285 285 286 286 286 287 286 286 287 287 288 288 287 287 287 289 289 291 292 292 293 294
275 271 273 276 277 276 276 276 275 280 282 278 276 275 278 279 278 279 279 279 280 281 282 284 285 285 284 285 285 286 286 287 287 288 288 287 287 288 289 290 291 291 292 292
271 272 276 276 274 276 273 273 273 277 279 279 277 275 275 278 279 279 279 280 280 280 281 282 283 283 284 284 284 285 286 286 287 287 288 287 288 287 287 287 288 289 290 291
272 275 275 274 273 274 273 275 276 279 275 271 278 266 274 275 276 277 278 278 279 280 281 282 282 282 283 284 284 285 285 286 287 287 286 285 284 283 285 286 287 288 289 289
271 272 272 272 273 275 275 277 276 278 274 271 272 270 273 275 274 275 277 278 279 279 280 280 281 282 283 284 284 284 285 285 286 286 286 285 284 285 286 286 286 287 288 288
273 274 273 272 275 276 277 276 276 274 273 260 267 268 269 272 274 275 276 277 279 279 279 280 281 282 282 282 283 284 284 284 285 285 285 285 284 284 284 284 284 285 286 287
273 272 273 275 272 275 275 272 259 262 260 263 268 266 270 274 277 276 275 276 278 278 278 278 278 279 280 281 282 283 283 283 284 284 284 284 284 284 284 284 284 284 284 285
265 267 271 275 272 270 272 268 263 259 261 262 267 263 271 277 277 276 276 276 278 277 277 277 278 279 279 280 281 281 282 282 283 283 283 284 284 284 284 284 284 284 284 284
264 267 273 276 274 272 269 267 270 255 248 257 264 268 272 276 275 274 275 275 275 276 277 277 278 278 279 280 280 280 281 282 282 282 283 283 284 284 283 284 284 284 284 284
267 265 272 274 274 274 272 272 264 259 257 257 263 262 266 273 273 274 273 274 275 275 276 277 277 278 279 279 280 280 281 281 282 282 282 283 283 284 284 283 283 283 283 283
269 266 268 272 269 267 268 267 265 263 261 257 257 266 267 271 276 275 274 275 275 275 276 276 277 278 278 279 279 280 280 281 282 283 282 282 283 283 283 283 282 282 283 282
272 263 261 265 269 269 270 267 266 261 259 260 261 263 275 274 275 277 277 278 275 276 276 277 277 277 277 278 279 279 280 281 282 282 282 282 283 283 283 282 282 283 282 282
271 263 258 264 267 270 267 270 268 262 260 257 259 265 272 273 274 275 275 275 276 276 276 277 277 277 277 278 279 279 280 280 281 281 281 282 282 282 282 282 282 282 281 281
274 263 264 264 265 264 264 265 264 261 256 260 263 266 270 271 272 274 274 275 275 276 276 277 276 277 278 279 278 279 280 281 281 281 281 281 282 282 282 282 282 281 281 280
268 260 261 261 264 264 266 268 266 263 263 262 265 265 271 271 271 273 275 276 276 277 277 277 277 277 278 278 279 279 280 280 280 280 280 281 282 282 281 281 281 280 279 279
270 258 260 258 262 265 265 268 269 268 268 267 268 268 275 276 275 274 275 276 276 277 278 278 279 279 279 280 280 280 280 280 280 279 280 281 281 281 280 279 279 278 278 278
263 260 256 256 260 257 261 264 267 268 268 268 264 270 271 272 273 274 275 276 276 277 278 278 279 279 280 280 281 279 280 280 280 280 280 280 279 278 278 277 277 276 276 276
260 258 254 254 254 254 269 267 269 269 270 271 270 271 272 273 273 275 276 275 277 277 278 279 279 279 280 280 280 280 280 279 280 279 279 278 277 276 275 275 275 274 274 274
269 264 253 256 251 262 268 267 267 266 268 272 271 273 274 275 271 272 276 276 276 275 277 279 280 280 279 279 280 279 279 279 277 274 274 275 274 273 273 272 272 272 272 272
268 266 263 249 252 255 267 268 270 270 263 271 272 273 272 271 267 271 276 277 277 277 275 277 279 279 278 278 278 278 276 274 271 272 272 271 271 271 270 270 270 271 271 271
264 264 262 256 252 259 268 270 270 263 269 273 273 274 273 270 274 275 276 276 277 276 277 278 276 276 277 274 276 273 270 269 270 269 269 269 269 268 268 269 269 269 269 270
264 263 261 259 254 260 270 269 268 273 274 275 273 274 274 274 275 275 275 276 277 275 276 276 274 274 274 273 274 269 267 267 267 267 266 266 266 267 268 267 268 268 268 267
266 269 266 267 265 272 273 273 275 275 274 274 274 275 274 274 274 275 276 276 277 277 276 275 273 273 269 269 272 270 266 266 265 264 263 264 265 266 267 267 266 266 266 266
266 271 268 269 272 272 273 275 275 275 274 276 276 276 275 274 276 276 276 277 277 278 277 275 273 270 268 266 268 264 263 265 264 262 262 264 265 265 265 265 266 265 264 265
269 271 270 270 272 274 274 274 276 277 277 277 277 276 276 276 276 277 277 277 277 277 277 275 274 273 270 268 265 261 264 264 262 262 263 263 264 263 263 264 264 265 266 267
272 272 271 273 276 276 275 277 277 276 277 277 277 277 277 277 277 278 277 278 277 275 274 273 270 268 266 263 262 261 259 260 259 261 262 261 261 261 262 262 262 266 268 270
Wind_Speed
10 16 7 7 5 3 7 10 8 3 2 9 8 9 5 4 5 7 6 6 7 8 6 6 8 9 11 11 12 13 14 14 11 10 10 9 9 8 9 9 13 13 13 14
9 12 6 4 5 8 7 10 4 2 4 7 4 4 2 2 2 3 4 5 6 5 7 7 8 8 9 10 11 12 12 12 11 8 8 5 6 6 7 8 9 11 13 13
10 2 5 4 7 7 6 5 2 5 4 6 4 1 3 1 2 2 3 2 3 4 6 7 8 7 7 8 10 10 11 11 10 10 7 6 4 5 7 9 9 10 12 12
9 5 4 6 6 4 4 3 1 6 3 4 3 3 4 5 4 2 0 2 3 5 5 5 8 8 7 6 6 7 9 9 10 10 9 10 8 7 8 8 9 9 12 12
1 6 7 8 4 4 3 1 3 3 4 4 5 2 3 3 5 5 5 3 3 4 5 7 7 7 7 6 5 6 7 7 7 7 6 6 8 7 7 7 11 11 10 12
4 1 4 2 3 3 3 3 5 4 3 5 4 4 4 5 6 4 4 6 5 4 6 7 7 6 6 5 4 5 5 5 6 6 6 7 8 9 8 10 9 9 9 9
3 4 4 4 3 3 4 5 4 7 7 4 2 2 8 5 6 7 9 8 6 5 5 7 7 7 7 7 5 5 4 6 6 7 6 6 7 7 9 9 7 10 8 9
4 5 7 8 3 1 4 5 6 4 1 5 4 5 4 2 3 5 5 5 5 6 5 7 7 6 6 7 5 5 5 7 7 7 8 7 6 5 5 7 7 7 7 8
5 1 2 3 3 1 3 5 3 10 1 4 3 6 3 2 4 5 7 5 7 7 7 8 9 7 6 6 6 5 5 7 7 7 6 7 6 6 7 9 8 6 9 9
4 5 1 3 1 6 3 5 4 5 3 4 5 6 6 5 9 8 8 8 8 6 8 8 7 7 5 6 6 6 5 6 7 7 6 6 7 6 7 7 9 10 10 11
4 3 3 2 4 2 2 2 7 6 3 6 1 8 7 7 8 8 9 9 8 7 8 7 7 7 7 6 5 6 6 6 7 6 6 7 7 7 7 7 8 9 11 12
1 6 3 1 2 1 2 4 3 7 5 1 3 11 4 7 5 6 8 7 6 7 8 7 7 7 7 7 6 6 7 6 8 6 6 8 8 7 8 8 9 9 11 11
6 1 4 8 5 3 3 4 4 5 4 6 6 9 2 4 4 6 7 8 7 7 9 8 7 7 7 7 7 7 7 9 7 5 6 7 8 8 9 9 9 10 11 12
5 3 7 8 7 4 3 4 4 7 5 5 10 8 8 7 8 7 8 8 9 10 10 8 8 9 8 8 7 8 9 8 6 6 6 8 8 8 8 9 9 10 10 12
5 5 2 3 4 2 4 5 9 10 7 9 3 9 14 5 8 10 10 10 9 10 8 9 9 9 9 8 8 8 8 7 5 6 7 8 8 7 7 9 10 10 12 12
2 2 2 4 3 2 8 11 15 14 10 15 12 21 22 21 9 10 12 8 9 10 11 10 11 11 11 11 9 7 8 7 4 5 7 6 6 6 8 10 11 12 13 13
5 7 4 7 4 6 9 12 18 9 7 12 11 16 2 6 7 8 9 8 10 11 11 10 11 11 11 11 9 7 8 5 5 5 6 5 6 8 10 11 12 13 13 14
7 6 3 4 4 0 6 2 7 11 8 16 7 13 8 11 5 7 8 9 14 12 12 11 9 9 10 10 8 7 6 5 5 4 5 5 7 9 11 11 12 13 12 13
2 6 3 4 4 9 7 7 9 10 10 16 22 18 16 12 2 10 14 11 15 12 12 10 10 10 9 9 7 6 6 4 3 3 3 5 8 10 10 11 12 13 12 12
3 5 5 4 5 8 6 4 4 5 7 6 14 15 14 6 3 7 8 7 8 9 8 9 10 7 7 9 4 5 5 2 3 3 4 6 6 8 10 11 12 11 12 13
4 1 6 4 5 13 11 6 7 6 8 6 11 11 9 7 9 6 4 7 6 8 11 9 7 8 10 4 3 5 3 4 2 3 4 5 6 8 9 11 10 12 12 12
11 11 6 4 2 14 10 7 9 9 4 6 6 8 8 9 9 8 9 9 11 10 11 9 7 8 6 4 4 3 4 1 2 3 4 5 6 6 7 10 10 11 12 12
6 10 9 16 14 0 19 6 17 3 3 5 5 9 9 8 8 10 11 12 11 11 9 7 6 7 1 3 4 4 3 1 3 2 5 6 7 7 7 9 11 10 10 10
6 4 5 1 9 18 11 18 11 6 10 10 9 10 6 11 13 13 11 11 10 10 9 6 5 5 5 4 3 3 2 2 2 4 5 5 6 7 7 7 8 8 8 9
6 12 7 8 9 6 12 15 16 13 12 14 13 13 15 12 14 13 12 12 11 11 9 6 7 6 5 5 4 3 2 1 3 4 5 6 6 8 8 7 8 9 9 12
8 9 8 12 9 10 7 6 11 13 15 14 12 12 12 12 15 13 12 12 10 9 6 5 4 4 5 4 3 2 0 0 1 4 4 5 6 6 7 8 8 17 18 22
Wind_Direction
22 59 31 317 334 79 96 87 93 47 305 60 70 99 93 75 72 70 57 49 42 34 360 1 10 11 14 16 17 18 18 17 17 16 11 17 12 11 12 9 7 2 1 4
51 54 329 289 25 74 68 90 70 111 38 87 122 91 110 78 51 63 61 41 33 12 2 359 357 8 10 9 10 14 16 13 18 13 8 8 350 359 8 1 1 359 1 1
82 296 319 65 39 56 35 85 125 124 106 63 130 152 189 176 130 78 41 18 11 0 353 350 353 355 355 4 2 5 5 8 13 7 5 7 3 2 4 3 356 354 357 358
76 344 33 49 69 354 72 352 135 116 84 145 17 264 252 194 200 186 303 348 333 345 341 335 345 343 340 336 344 355 359 0 7 360 8 13 9 3 353 341 342 345 353 353
60 7 22 46 5 332 90 134 95 89 88 86 345 67 260 137 234 223 227 248 301 316 320 324 330 326 323 323 334 338 348 352 351 353 1 2 2 350 339 341 342 346 345 347
99 58 52 327 307 5 120 93 48 56 74 37 255 121 258 193 204 186 211 227 232 285 325 318 311 311 308 317 317 328 337 321 333 343 346 358 353 344 344 346 343 343 338 338
26 25 341 36 7 45 59 58 356 5 14 212 345 48 242 228 217 193 192 217 233 261 294 302 307 313 312 319 308 311 328 315 323 337 342 342 334 334 336 336 335 332 332 333
100 352 13 339 59 147 48 130 143 191 261 270 334 242 251 246 199 206 197 205 233 271 280 296 295 296 296 303 295 310 314 313 322 324 326 327 323 325 321 324 320 317 320 319
110 76 338 59 31 61 268 50 155 104 74 40 265 283 278 161 215 223 227 243 254 269 291 302 306 306 304 307 290 288 295 293 299 297 300 305 307 320 320 322 321 318 314 315
226 82 34 290 192 33 90 143 63 6 63 315 293 279 243 215 225 227 239 239 250 266 300 299 305 307 301 288 283 289 270 267 282 289 286 285 287 289 293 298 306 313 313 317
138 88 270 18 23 168 19 30 50 106 102 156 270 272 209 209 211 217 234 237 240 254 285 283 291 290 284 288 275 280 285 280 288 294 296 294 290 290 290 290 293 298 306 311
165 139 127 158 171 258 187 189 132 115 260 72 128 272 221 214 215 215 236 231 232 249 268 279 285 290 294 287 277 267 272 270 273 278 278 281 284 285 287 291 296 300 302 305
192 356 29 346 2 358 206 182 115 103 77 207 141 262 238 269 245 233 237 252 261 265 285 284 286 284 286 288 278 272 269 262 267 275 282 289 284 283 282 283 291 299 301 303
97 104 160 190 201 132 178 195 168 126 125 187 231 286 254 236 230 243 248 260 273 270 266 269 273 268 265 265 266 273 272 265 276 286 287 287 288 291 289 293 295 297 301 300
114 176 123 265 260 304 230 183 188 202 181 176 243 222 258 232 218 239 252 265 264 266 265 257 260 262 263 269 271 270 261 266 266 271 283 284 291 294 293 299 302 302 302 300
64 213 93 315 350 308 278 223 220 219 230 258 255 276 268 273 278 271 260 252 257 265 266 269 271 271 269 265 259 268 269 267 260 273 283 289 296 303 305 305 308 306 304 304
117 131 89 268 341 333 297 229 196 186 209 203 197 232 279 267 239 253 261 248 250 257 262 260 263 269 270 268 265 264 268 268 276 276 289 301 310 309 310 310 309 307 305 305
127 98 78 233 5 68 244 179 187 203 232 209 260 256 238 244 244 269 245 245 268 264 262 262 259 263 262 260 252 255 258 263 269 279 303 313 314 313 314 312 308 306 304 301
89 121 85 149 210 302 271 192 169 177 267 201 218 245 253 265 212 278 251 240 240 245 252 253 254 258 265 261 263 256 272 260 266 289 301 317 320 312 312 308 307 305 302 300
69 67 119 89 167 226 238 172 176 145 284 206 186 225 237 135 224 248 254 253 262 242 236 258 264 264 253 265 235 255 265 250 274 303 310 310 305 305 302 300 301 300 297 295
141 186 199 193 246 280 240 157 154 91 240 172 185 214 201 187 220 232 216 251 243 243 264 273 262 258 265 245 230 235 236 255 288 307 296 304 298 296 293 293 297 298 300 299
163 157 194 122 146 275 151 93 182 212 202 177 198 223 217 227 250 254 261 266 270 265 271 263 243 256 259 235 184 197 231 201 313 313 306 299 292 288 292 292 297 300 301 301
217 188 180 192 206 209 191 197 214 136 186 218 208 233 225 240 245 257 267 267 263 261 259 253 229 264 243 161 166 208 219 269 268 282 290 292 294 291 296 307 307 307 304 304
244 159 235 84 209 227 215 244 251 237 228 243 240 249 220 239 261 261 261 264 267 267 260 252 243 242 226 192 167 157 200 291 311 297 293 297 301 307 306 306 303 304 303 303
189 146 203 262 273 267 238 229 242 248 242 250 251 240 245 245 256 253 264 264 261 256 256 231 231 228 204 170 176 172 178 333 313 305 307 312 316 314 312 307 305 301 299 297
190 183 191 242 221 212 217 216 225 230 242 245 246 256 242 230 248 255 252 253 251 253 244 229 206 169 166 170 173 174 205 172 270 308 312 311 309 308 307 308 307 304 310 311